047  
ASUS42 KMHX 172226  
RWRMHX  
WEATHER ROUNDUP FOR EASTERN NORTH CAROLINA  
NATIONAL WEATHER SERVICE NEWPORT/MOREHEAD CITY NC  
600 PM EDT WED OCT 17 2018  
 
NOTE: "FAIR" INDICATES FEW OR NO CLOUDS BELOW 12,000 FEET  
WITH NO SIGNIFICANT WEATHER AND/OR S TO VISIBILITY
 
 
NCZ015>017-031-032-045>047-102-103-172300-  
NORTH COAST  
 
CITY SKY/WX TMP DP RH WIND PRES REMARKS
 
EDENTON FAIR 67 54 62 W6 30.09S  
ELIZABETH CITY FAIR 66 52 60 SW8 30.07R  
KITTY HAWK FAIR 67 50 56 W3 30.05S  
MANTEO FAIR 67 53 60 W7 30.08R  
 

 
 
NCZ045>047-081-094-103-104-172300-  
CENTRAL COAST  
 
CITY SKY/WX TMP DP RH WIND PRES REMARKS
 
FRISCO FAIR 71 53 52 VRB7 30.08R  
 

 
 
NCZ095-097-098-100-101-172300-  
SOUTHERN COAST  
 
CITY SKY/WX TMP DP RH WIND PRES REMARKS
 
BEAUFORT NOT AVBL  
CEDAR ISLAND NOT AVBL  
JACKSONVILLE FAIR 73 66 78 NW7 30.09R  
PINEY ISLAND NOT AVBL  
WILMINGTON MOCLDY 76 65 68 N3 30.09R  
 

 
 
NCZ011>013-027>030-043-044-078>080-089-090>093-098-172300-  
COASTAL PLAIN  
 
CITY SKY/WX TMP DP RH WIND PRES REMARKS
 
AHOSKIE FAIR 65 51 60 W3 30.10R  
CLINTON FAIR 71 63 77 CALM 30.12R  
ELIZABETHTOWN FAIR 74 67 78 CALM 30.11R  
GOLDSBORO FAIR 68 51 53 W5 30.09S  
GREENVILLE FAIR 64 52 63 CALM 30.12R  
HAVELOCK FAIR 72 64 76 NW10 30.10S  
KENANSVILLE NOT AVBL  
KINSTON CLEAR 68 59 73 CALM 30.11R  
NEW BERN FAIR 70 61 73 W5 30.11R  
RICHLANDS FAIR 71 66 84 CALM 30.11R  
ROCKY MOUNT FAIR 63 56 78 CALM 30.11R  
WASHINGTON FAIR 65 50 59 W3 30.11R  
WHITEVILLE FAIR 75 68 80 CALM 30.09S  
 

 
 
AMZ130-135-150-152-154-156-158-170-250-252-270-ANZ085-086-088-633-658-670-172300-  
MARINE OBSERVATIONS  
 
STATION/POSITION TIME TEMP WIND PRES WAVE SWELL
 
AIR SEA DIR/SP/G HT/PER HT/PER  
(UTC) (F) (DEG/KT/KT) (MB) (FT/S) (FT/S)  
CHESAPEAKE LIGHT NOT AVBL  
64 E VA BEACH 2150 67 69 290/ 10/ 12 1017.8 3/ 4 2/11  
DUCK 2200 69 73 260/ 13/ 15 1017.7  
2 E DUCK 2200 73 N/A 2/12 2/12  
OREGON INLET 2154 69 71 250/ 9/ 13 1017.9  
13E OREGON INLT 2216 73 N/A 3/ 6 2/ 6  
HATTERAS CG 2200 71 75 280/ 12/ 17 1018.3  
DIAMOND BUOY 2210 73 80 290/ 12/ 17 1018.8  
CAPE LOOKOUT 2200 350/ 7/ 9 1019.1  
BEAUFORT LAB 2200 73 77 330/ 5/ 8 1019.2  
30 SE NEW RVR IN 2108 76 80 130/ 2/ 4 1018.2  
30 SE NEW RVR IN 2200 80 N/A 3/ 5 2/12  
27 SE WRIGHTSVLE 2208 76 80 330/ 2/ 6 1018.9  
5 SE WRIGHTSVLE 2208 77 79 360/ 4/ 6 1019.0  
225 S CAPE HAT 2210 81 1018.8  
41 SE CHARLESTON 2210 81 82 1019.2  
 

 
 
 
CLICK HERE TO GO TO PREVIOUS BULLETINS.

The Nexlab NC Page Main Text Page